Temperature
15 15 15 16 13 11 12 14 15 17 17 19 19 18 17 17 18 17 16 16 16 16 16 16 16 16 16 16 16 16 16 16 16 16 16 16 15 15 15 15 15 15 15 15 15 15 15 15 15
15 15 15 15 11 12 13 13 15 16 18 19 19 18 17 16 16 16 16 16 16 16 16 16 16 16 16 16 16 16 16 16 16 16 15 15 15 15 15 15 15 15 15 15 15 15 15 15 15
15 15 15 11 11 12 14 15 15 17 19 19 18 17 16 16 16 16 16 16 16 16 16 15 15 15 15 16 16 16 15 15 15 15 15 15 15 15 15 15 15 15 15 15 15 15 15 15 15
14 15 14 11 12 12 14 16 16 17 18 18 17 16 16 16 16 16 16 16 16 16 15 15 15 15 15 15 15 15 15 15 15 15 15 15 15 15 15 14 14 14 14 14 14 14 14 14 14
14 14 11 11 12 12 13 15 17 16 17 18 17 15 15 16 16 16 16 15 16 15 15 15 15 15 15 15 15 15 15 15 15 15 15 15 15 15 15 14 14 14 14 14 14 14 14 14 14
13 11 10 10 12 13 14 16 17 16 16 17 16 14 14 15 15 15 15 15 15 15 15 15 15 15 15 14 15 15 15 15 15 15 15 14 14 14 14 14 14 14 14 14 14 14 14 14 14
12 9 10 11 12 13 14 17 16 15 15 16 17 14 14 14 15 15 15 15 15 15 15 14 14 14 14 14 14 14 14 14 14 14 14 14 14 14 14 14 14 14 14 14 14 14 14 14 13
13 9 11 11 12 13 15 16 17 16 16 17 17 14 13 15 14 14 14 14 14 14 14 14 14 14 14 14 14 14 14 14 14 14 14 14 14 14 14 14 14 14 14 14 14 13 13 13 13
13 9 10 11 13 13 15 15 16 16 16 16 16 16 16 15 14 14 14 14 14 14 14 14 14 14 14 14 14 14 14 14 14 14 14 14 14 13 13 13 13 13 13 13 13 13 13 13 13
11 9 10 12 13 13 14 14 15 15 14 14 15 15 15 14 14 14 14 13 13 13 13 13 13 13 13 13 13 13 13 13 13 13 13 13 13 13 13 13 13 13 13 13 13 13 13 13 13
10 9 11 12 13 14 13 14 14 14 13 13 14 14 14 14 14 14 14 14 13 13 13 13 13 13 13 13 13 13 13 13 13 13 13 13 13 13 13 13 12 12 13 13 13 12 12 12 12
10 10 12 12 13 13 13 13 13 13 14 15 15 14 14 13 13 13 13 13 13 13 13 13 13 13 13 13 13 13 13 13 13 13 13 12 12 12 12 12 12 12 12 12 12 12 12 12 12
10 10 11 12 12 12 12 12 12 13 14 14 14 13 13 13 13 13 13 13 13 13 13 13 12 12 12 12 12 13 12 12 12 12 12 12 12 12 12 12 12 12 12 12 12 12 11 11 11
10 10 11 11 11 12 11 11 11 12 13 13 13 13 13 13 13 13 12 12 12 12 12 12 12 12 12 12 12 12 12 12 12 12 12 12 12 12 12 11 11 11 11 11 11 11 11 11 11
10 9 9 10 10 11 11 10 10 12 12 12 12 12 12 12 12 12 12 12 12 12 12 12 12 12 12 12 12 12 12 12 12 11 11 11 11 11 11 11 11 11 11 11 11 10 10 10 10
9 8 8 9 10 10 10 9 10 12 11 11 11 11 11 11 12 12 12 12 12 12 12 11 11 11 11 11 11 11 11 11 11 11 11 11 11 11 11 11 11 10 10 10 10 10 10 10 10
7 7 7 9 9 9 9 8 9 11 10 10 10 11 11 11 11 11 11 11 12 12 11 11 11 11 11 11 11 11 11 10 10 10 11 11 11 11 10 10 10 10 10 10 10 10 10 10 9
6 6 7 8 9 9 8 8 8 9 9 9 10 10 10 10 11 11 11 11 11 11 11 11 11 11 10 10 10 10 10 10 10 10 10 10 10 10 10 10 10 10 10 9 9 9 9 9 9
7 7 7 7 8 8 7 7 8 8 9 8 9 9 9 10 10 10 10 10 11 11 11 10 10 10 10 10 10 10 10 9 9 10 10 10 10 10 10 10 10 9 9 9 9 9 9 9 9
6 6 6 7 8 8 7 7 7 8 8 8 8 8 8 9 9 9 9 10 10 10 10 10 10 10 10 10 10 9 9 9 9 9 9 9 9 9 9 9 9 9 9 9 9 9 9 8 8
6 5 6 6 7 7 7 6 6 7 7 7 7 7 7 8 8 8 9 9 9 9 9 9 9 9 9 9 9 9 9 9 9 9 9 9 9 9 9 9 9 9 9 9 9 8 9 8 8
5 6 6 6 5 5 6 5 5 5 5 5 5 6 6 7 7 7 8 8 8 9 8 8 9 9 9 9 9 9 9 9 9 8 8 8 8 9 9 9 8 8 8 8 8 8 8 8 8
5 6 6 6 5 4 5 4 4 5 5 5 4 5 5 6 6 6 7 7 8 8 8 8 8 8 8 8 8 8 8 8 8 8 8 8 8 8 8 8 8 8 8 8 8 8 8 8 8
5 5 5 4 4 4 4 4 4 4 4 4 4 4 4 5 5 6 6 7 7 7 7 7 7 7 8 8 8 8 8 8 8 8 8 8 8 8 7 8 7 7 7 7 7 7 7 7 7
4 3 3 3 3 4 4 4 3 3 4 4 4 4 4 4 4 5 5 6 6 6 6 7 7 7 7 7 7 7 7 7 7 7 7 7 7 7 7 7 7 7 7 7 7 7 7 7 7
3 3 3 3 3 3 4 3 3 3 3 4 4 3 3 3 3 4 4 5 5 5 5 6 6 6 6 6 7 7 7 7 7 7 7 7 7 7 7 7 7 7 7 7 7 7 7 7 7
3 3 3 2 2 2 3 3 3 3 2 2 2 2 2 2 3 3 3 4 4 4 5 5 5 5 5 6 6 6 6 6 6 6 6 6 6 6 6 6 6 6 6 6 6 6 6 6 6
3 2 2 2 2 2 2 2 2 2 1 1 1 1 2 2 2 2 3 3 3 4 4 4 4 5 5 5 5 5 6 6 6 6 6 6 6 6 6 6 6 6 6 6 6 6 6 6 6
1 1 1 1 1 1 1 1 2 1 1 1 1 1 1 1 1 2 2 2 3 3 3 3 3 4 4 4 4 4 5 5 5 5 5 5 5 5 5 5 5 5 6 5 5 5 5 5 5
1 0 0 1 0 0 0 1 1 1 1 1 0 0 0 0 1 1 1 1 2 2 2 3 3 3 3 3 4 4 4 4 4 5 5 5 5 5 5 5 5 5 5 5 5 5 5 5 5
Wind_Speed
6 5 3 4 5 4 4 6 5 3 2 2 2 5 7 5 4 5 3 7 11 11 13 16 16 15 14 14 14 14 14 14 13 13 13 13 13 13 12 13 12 12 12 12 12 12 12 13 13
3 2 5 5 5 2 6 6 6 7 5 2 3 5 6 4 3 7 5 8 12 12 13 15 16 16 15 14 14 14 14 14 13 13 13 12 12 12 12 12 12 12 12 12 12 12 12 11 11
3 2 4 4 5 7 7 5 7 5 3 2 2 4 5 4 4 5 6 11 11 10 13 15 16 16 15 14 14 14 13 13 13 13 13 12 12 12 12 12 12 12 12 12 12 12 11 11 11
3 4 4 3 7 7 7 5 3 2 0 2 4 5 3 1 4 5 10 12 12 9 12 15 16 16 15 15 14 14 13 13 13 13 12 12 12 12 12 12 12 12 12 12 12 12 11 11 11
4 4 3 3 7 6 6 6 3 3 3 2 4 5 2 3 5 10 11 11 12 9 11 14 16 15 15 14 14 13 13 13 13 12 12 12 12 12 12 12 12 12 12 12 11 11 10 10 11
3 4 4 6 8 5 6 5 4 4 3 2 5 6 2 1 7 8 10 10 10 10 10 12 15 15 15 14 14 13 13 13 13 12 12 12 12 12 12 12 12 12 11 11 11 10 10 10 10
4 5 6 6 5 6 6 4 4 5 4 5 7 7 3 2 5 7 9 9 9 9 9 9 11 13 14 14 13 13 13 13 13 12 12 12 12 11 11 11 11 11 11 10 10 10 9 10 10
5 4 4 5 6 6 3 2 3 6 5 2 6 9 6 6 6 8 9 8 8 7 7 7 9 10 10 12 13 13 13 12 12 12 12 12 11 11 11 10 10 11 11 10 10 9 9 9 9
4 3 7 7 7 5 2 2 2 2 4 2 2 5 6 10 9 10 8 6 6 6 5 6 6 8 9 10 11 12 12 12 11 11 12 11 10 10 9 9 10 11 11 10 9 9 8 8 8
4 6 9 5 4 3 1 1 1 2 2 2 2 3 8 10 11 10 10 9 7 6 5 5 5 6 7 8 9 9 9 10 10 10 11 10 10 9 8 9 9 10 10 9 9 8 8 8 8
6 8 5 4 4 2 2 3 1 4 3 5 7 8 10 10 10 10 9 8 8 7 6 5 5 6 6 6 7 7 8 8 9 10 10 10 9 8 8 7 7 7 8 7 7 7 7 7 7
5 7 5 4 3 2 2 2 2 4 6 5 8 12 12 11 10 10 10 8 7 7 6 5 5 5 6 7 6 6 6 6 6 8 10 10 7 6 6 5 6 6 6 6 6 6 7 8 8
9 7 6 6 4 4 3 4 4 5 5 3 6 9 11 11 9 8 8 7 7 7 6 6 5 5 5 6 5 5 5 6 7 8 9 10 7 5 5 4 5 5 5 5 5 6 7 7 7
6 6 7 7 6 5 5 5 4 7 4 4 6 8 9 9 9 7 7 7 7 7 6 6 6 5 6 5 5 5 5 6 7 7 8 9 9 7 6 4 4 5 6 6 6 6 6 5 6
4 5 7 7 6 5 3 8 8 7 5 5 6 7 7 7 7 8 9 8 8 7 6 6 6 5 5 5 5 5 5 7 6 6 8 8 8 9 7 5 4 5 6 7 6 6 6 5 5
2 4 8 7 6 5 6 11 7 5 6 6 6 6 6 6 7 7 7 7 7 7 7 6 6 5 5 4 4 4 5 6 5 6 7 8 9 9 8 5 4 6 7 6 4 4 4 3 3
3 6 8 6 5 5 7 8 5 3 6 7 6 6 6 5 5 5 6 7 7 8 8 7 6 6 5 5 4 4 5 5 5 6 6 7 8 9 8 5 5 7 6 4 4 3 4 4 4
6 6 6 7 4 5 7 9 5 3 4 6 6 6 6 6 6 5 5 6 6 6 7 7 6 6 5 4 3 3 3 3 4 5 6 7 8 9 8 5 6 7 4 4 4 4 4 4 4
5 6 7 6 4 4 8 9 7 5 3 4 4 4 5 5 3 2 3 4 5 5 6 6 6 6 5 4 4 3 3 3 3 4 6 7 8 9 8 5 5 5 4 5 5 4 5 3 3
5 6 7 5 4 4 5 7 6 4 5 4 4 3 4 2 1 2 2 3 4 5 5 6 6 6 6 5 4 3 3 3 3 3 5 7 7 8 7 6 5 5 4 5 5 5 4 2 3
7 7 6 5 4 2 1 4 2 2 1 2 1 1 2 4 3 2 2 2 2 3 5 5 6 5 5 5 4 3 2 2 2 3 3 5 7 8 7 6 5 5 5 6 5 6 5 4 2
7 6 6 5 2 3 2 3 3 2 2 3 2 2 1 1 2 2 2 1 1 2 2 4 5 5 4 5 6 6 5 4 4 4 4 4 6 7 7 7 7 6 5 5 6 5 4 6 4
5 4 5 4 4 3 2 3 4 1 1 2 2 2 1 1 1 2 2 2 1 1 1 2 3 3 4 5 6 7 5 4 3 3 5 5 5 6 6 7 6 6 5 6 6 5 5 5 5
2 1 1 1 2 5 6 5 3 0 1 1 2 3 3 2 2 2 2 2 2 2 1 2 3 3 3 4 5 6 6 6 5 5 5 5 4 4 5 6 6 6 5 5 5 6 6 5 5
2 3 1 0 2 5 4 4 2 1 1 1 0 1 2 2 2 3 3 3 2 2 1 1 3 3 3 4 4 5 6 7 7 7 7 6 4 4 6 6 6 5 5 6 6 5 6 6 6
2 4 4 4 4 2 1 4 1 2 3 3 3 2 3 3 2 2 2 2 2 1 1 0 2 3 3 3 4 4 5 5 5 6 6 6 5 5 6 6 6 6 6 6 6 5 5 5 5
2 3 3 2 1 1 2 1 1 7 7 7 6 6 5 4 4 3 3 3 2 2 2 1 1 2 3 3 3 4 5 5 5 5 5 5 5 4 5 6 6 6 6 6 6 5 5 5 5
1 2 2 2 3 3 1 1 1 5 5 6 5 5 5 5 5 4 4 3 3 2 2 2 1 1 2 3 3 3 4 5 5 4 5 5 5 5 6 6 6 6 6 6 6 5 5 5 5
3 1 0 2 2 3 2 1 2 1 2 3 3 4 4 5 5 4 4 4 3 3 3 3 2 1 1 2 2 3 3 4 4 4 5 5 5 6 6 6 7 7 6 6 6 6 6 7 5
3 1 1 2 1 1 2 1 4 4 4 3 3 4 4 5 5 5 5 4 4 4 4 4 3 2 2 2 2 2 3 4 5 5 5 5 5 6 6 6 6 6 6 6 7 7 7 7 7
Wind_Direction
325 347 70 60 61 62 231 243 232 240 227 218 150 125 127 123 143 157 149 142 136 143 151 150 148 145 143 140 137 135 132 129 126 126 123 121 120 119 117 116 113 111 109 106 104 102 100 96 93
343 34 61 66 108 176 253 243 233 232 209 167 105 100 92 85 85 116 130 142 139 143 146 149 148 144 143 140 139 137 135 133 131 129 126 124 122 120 118 116 114 113 110 107 105 102 102 98 96
352 69 90 96 154 192 220 229 221 236 215 162 103 74 106 126 130 145 153 140 132 134 142 148 147 145 144 141 140 139 138 136 134 133 130 127 126 124 121 118 114 112 111 110 107 103 101 100 99
69 57 69 117 215 220 211 217 204 186 107 95 121 88 71 53 161 149 138 134 129 130 138 147 148 147 145 143 142 142 140 139 137 137 135 131 128 123 119 118 116 114 113 113 111 106 103 101 102
69 92 120 223 235 240 235 238 218 214 194 153 121 114 77 344 114 123 131 134 133 132 137 148 148 147 146 145 144 144 144 142 140 139 137 134 130 126 122 121 121 119 117 113 112 108 104 103 104
79 94 151 219 235 246 251 237 207 204 206 167 127 121 145 126 118 129 130 133 134 135 135 144 149 147 146 145 145 144 144 145 144 141 138 135 133 131 127 126 125 122 120 117 115 111 106 105 104
135 141 193 210 225 241 241 228 194 191 192 191 150 130 156 178 141 128 125 127 129 130 130 134 144 147 147 146 147 147 146 143 143 141 139 136 133 132 130 128 128 127 124 122 119 115 109 109 105
148 145 207 214 212 234 237 212 194 180 195 184 138 146 176 195 153 120 112 116 126 128 130 132 138 142 142 147 150 148 146 144 142 140 135 131 131 131 130 127 130 131 130 127 123 119 111 111 105
127 160 216 211 201 226 243 220 264 196 138 110 125 165 175 149 135 120 114 112 124 133 136 136 135 138 140 144 150 147 144 144 141 137 132 129 126 126 126 126 130 133 133 130 126 121 113 110 104
153 204 220 212 202 207 300 264 259 122 127 120 70 80 122 136 140 142 147 151 153 154 153 148 147 146 145 146 139 139 141 140 137 135 132 129 128 127 126 127 129 130 130 129 126 119 114 109 103
187 214 220 233 238 235 278 294 297 155 204 196 174 160 147 146 150 155 160 159 162 160 155 152 152 151 146 137 137 134 134 136 137 139 138 135 130 125 120 119 121 124 124 121 121 110 106 109 108
215 231 218 229 235 225 234 266 283 212 220 205 172 160 155 159 165 168 169 168 161 157 159 154 148 145 145 143 141 139 138 137 139 146 146 140 130 125 123 119 122 122 123 120 118 112 110 110 114
232 244 241 240 241 236 241 246 246 254 244 178 153 156 168 173 176 177 171 165 157 162 165 159 147 148 149 142 144 144 143 147 149 149 153 150 142 140 133 133 134 131 130 129 126 121 117 113 114
234 246 257 257 248 238 231 254 224 245 212 184 170 174 181 181 180 173 168 170 171 170 168 161 155 147 147 150 149 147 151 151 148 149 155 156 154 150 145 141 140 142 144 143 139 132 126 118 116
249 262 273 250 228 224 206 263 235 228 188 194 196 189 184 190 183 184 185 180 175 171 165 162 162 148 148 153 155 149 152 151 150 153 155 156 158 155 149 146 148 154 150 142 131 122 118 114 112
257 240 250 248 207 197 177 248 253 210 184 207 210 204 197 201 195 194 189 178 170 163 160 163 161 151 151 149 148 144 148 147 149 154 155 159 160 157 149 148 157 157 147 139 131 127 118 111 112
227 229 236 251 209 185 193 242 248 208 186 213 215 211 205 206 203 193 182 176 172 167 161 160 153 156 156 147 139 141 146 148 152 154 157 162 162 160 154 153 158 156 143 138 144 135 136 129 120
222 224 225 226 222 189 211 242 255 255 204 218 217 212 206 204 209 194 180 174 170 165 160 159 155 157 152 138 125 128 139 147 148 156 164 164 164 164 158 153 157 154 145 148 143 140 131 134 134
230 230 243 241 248 209 226 245 250 250 240 232 220 204 204 210 211 157 161 158 150 151 153 161 161 163 155 153 156 163 176 173 167 168 170 170 168 166 161 159 161 158 163 164 154 141 137 132 130
249 249 253 272 276 231 237 254 249 237 215 208 201 207 196 189 137 110 107 132 154 163 163 164 169 171 172 174 173 168 167 173 176 170 170 174 170 168 169 163 168 167 161 158 158 148 144 144 146
238 232 233 248 302 297 223 292 270 283 114 59 52 116 158 164 170 151 127 131 143 169 179 178 175 176 176 167 146 126 107 113 167 186 191 184 174 173 171 171 169 171 169 171 171 165 154 162 166
246 239 235 228 227 265 184 254 277 270 31 36 10 20 32 143 152 141 127 120 154 183 181 177 173 174 173 166 168 169 176 186 196 189 190 185 177 176 177 177 176 174 173 173 178 173 162 161 168
237 249 233 226 214 245 216 197 280 296 51 339 333 347 6 26 118 127 140 161 131 121 146 173 167 177 176 176 181 181 186 188 177 173 180 188 186 181 180 177 175 177 176 176 175 171 166 168 170
250 358 33 70 147 230 214 186 277 228 225 310 360 12 13 19 38 52 57 74 68 68 113 150 165 182 186 182 184 189 187 182 178 186 189 194 191 187 184 178 176 180 178 177 178 176 174 175 169
63 93 74 260 218 232 172 165 228 317 18 107 32 2 10 30 48 45 48 44 37 39 78 162 176 191 196 192 195 197 195 191 193 194 195 194 194 198 198 188 182 182 181 176 170 173 181 179 174
223 166 175 203 206 244 152 187 184 21 22 37 46 40 33 27 38 44 49 50 32 21 19 224 198 201 201 203 210 204 198 198 201 198 196 197 201 203 194 187 184 184 181 179 173 176 183 181 181
186 214 199 163 141 189 216 210 12 21 21 23 26 31 26 16 22 22 19 21 13 4 349 299 226 219 214 214 211 210 205 200 199 196 194 199 200 197 189 187 186 184 182 182 177 183 184 181 187
134 164 109 146 173 210 240 254 319 358 5 12 17 21 14 16 19 17 11 4 360 2 353 346 344 263 246 224 215 219 213 204 198 194 198 198 196 190 190 193 190 186 184 182 182 185 182 182 192
27 52 79 164 165 169 194 251 350 354 9 17 13 16 13 11 7 4 359 355 0 8 10 0 350 346 312 263 231 220 220 203 198 201 204 197 193 189 192 197 194 191 190 186 187 190 184 186 189
58 57 136 170 213 176 164 266 353 14 19 36 25 17 18 18 8 4 3 4 4 4 359 350 341 338 316 296 254 232 222 205 201 205 206 196 193 191 189 192 195 193 192 191 189 190 188 189 193
Height
1513 1514 1515 1517 1521 1532 1530 1521 1513 1508 1506 1504 1503 1503 1505 1508 1512 1518 1516 1516 1518 1520 1523 1526 1528 1530 1532 1533 1535 1536 1538 1539 1540 1541 1542 1543 1544 1545 1546 1546 1547 1548 1548 1549 1549 1550 1551 1551 1551
1512 1513 1516 1517 1526 1535 1529 1516 1510 1504 1503 1503 1503 1503 1504 1507 1509 1511 1513 1515 1518 1520 1523 1525 1528 1530 1531 1533 1534 1536 1537 1539 1540 1541 1542 1543 1544 1545 1546 1547 1547 1548 1549 1549 1550 1551 1551 1552 1552
1511 1513 1515 1518 1526 1527 1519 1508 1504 1501 1501 1502 1503 1504 1505 1507 1509 1510 1512 1515 1518 1520 1522 1525 1527 1529 1531 1533 1534 1536 1537 1539 1540 1541 1542 1543 1544 1545 1546 1547 1548 1548 1549 1550 1550 1551 1552 1552 1553
1511 1513 1515 1521 1520 1513 1508 1502 1500 1500 1500 1501 1502 1504 1506 1508 1509 1510 1512 1514 1517 1519 1522 1524 1526 1529 1530 1532 1534 1535 1537 1538 1539 1541 1542 1543 1544 1545 1546 1547 1548 1548 1549 1550 1551 1551 1552 1553 1553
1509 1511 1517 1520 1515 1507 1502 1500 1500 1500 1499 1500 1501 1503 1506 1508 1509 1510 1512 1514 1516 1519 1521 1524 1526 1528 1530 1531 1533 1535 1536 1537 1539 1540 1542 1543 1544 1545 1546 1547 1548 1548 1549 1550 1551 1552 1553 1554 1554
1508 1510 1519 1519 1511 1504 1499 1498 1499 1499 1499 1499 1500 1503 1506 1508 1509 1510 1512 1514 1516 1518 1521 1523 1525 1527 1529 1531 1532 1534 1535 1537 1538 1540 1541 1542 1543 1544 1545 1546 1547 1548 1549 1550 1551 1552 1553 1554 1555
1507 1511 1514 1511 1507 1503 1497 1496 1497 1497 1497 1498 1498 1502 1505 1507 1508 1510 1512 1514 1516 1518 1520 1522 1524 1526 1528 1530 1531 1533 1534 1536 1537 1539 1540 1541 1543 1544 1545 1546 1547 1548 1549 1550 1551 1552 1553 1554 1555
1503 1508 1508 1506 1503 1499 1494 1494 1494 1494 1495 1497 1497 1499 1502 1505 1507 1509 1511 1514 1516 1517 1519 1521 1523 1525 1527 1528 1530 1532 1533 1535 1536 1538 1539 1540 1542 1543 1544 1545 1546 1547 1548 1550 1551 1552 1553 1554 1555
1502 1508 1506 1501 1498 1495 1492 1492 1492 1493 1493 1494 1495 1496 1498 1502 1505 1508 1510 1512 1514 1516 1518 1520 1522 1524 1525 1527 1529 1530 1532 1533 1535 1536 1538 1539 1540 1542 1543 1544 1546 1547 1548 1549 1550 1551 1552 1554 1555
1498 1502 1496 1493 1492 1492 1491 1491 1491 1491 1492 1493 1494 1495 1497 1500 1502 1505 1507 1509 1512 1514 1516 1518 1520 1522 1524 1525 1527 1529 1530 1532 1533 1535 1536 1538 1539 1541 1542 1543 1545 1546 1547 1549 1550 1551 1552 1553 1554
1494 1494 1491 1490 1490 1490 1490 1490 1490 1490 1492 1490 1491 1493 1495 1498 1501 1503 1505 1507 1510 1512 1514 1516 1519 1520 1522 1523 1525 1527 1529 1530 1532 1533 1535 1536 1538 1539 1541 1542 1544 1545 1546 1548 1549 1550 1551 1552 1553
1491 1488 1488 1488 1489 1489 1489 1489 1490 1489 1489 1489 1490 1491 1493 1496 1498 1500 1503 1505 1508 1510 1512 1514 1516 1518 1520 1522 1523 1525 1527 1528 1530 1531 1533 1535 1536 1538 1539 1541 1542 1544 1545 1546 1548 1549 1550 1552 1553
1488 1486 1486 1487 1487 1487 1488 1488 1488 1487 1487 1488 1489 1490 1492 1494 1496 1499 1501 1503 1506 1508 1510 1512 1514 1516 1518 1520 1521 1523 1525 1526 1528 1530 1531 1533 1534 1536 1538 1539 1541 1542 1544 1545 1547 1548 1549 1551 1552
1484 1485 1485 1484 1484 1485 1486 1486 1487 1484 1485 1486 1488 1489 1490 1492 1494 1496 1498 1500 1503 1505 1507 1509 1512 1514 1516 1518 1519 1521 1523 1524 1526 1527 1529 1531 1533 1534 1536 1537 1539 1541 1542 1544 1545 1547 1548 1549 1551
1484 1484 1483 1481 1481 1483 1485 1485 1482 1482 1483 1484 1485 1487 1488 1490 1491 1493 1495 1497 1499 1502 1505 1507 1509 1511 1513 1515 1517 1519 1520 1522 1524 1525 1527 1529 1530 1532 1534 1535 1537 1539 1540 1542 1544 1545 1547 1548 1549
1482 1484 1484 1479 1479 1480 1487 1483 1478 1479 1480 1481 1482 1484 1485 1487 1488 1490 1492 1494 1497 1499 1502 1504 1507 1509 1511 1513 1515 1516 1518 1520 1521 1523 1524 1526 1528 1530 1531 1533 1535 1537 1538 1540 1542 1543 1545 1546 1548
1484 1485 1482 1479 1476 1478 1481 1480 1477 1476 1477 1478 1479 1480 1482 1484 1486 1488 1489 1492 1494 1497 1499 1501 1504 1506 1508 1510 1512 1514 1516 1517 1519 1520 1522 1524 1525 1527 1529 1531 1533 1535 1536 1538 1540 1541 1543 1544 1546
1484 1483 1480 1478 1474 1476 1478 1477 1475 1475 1475 1475 1476 1478 1479 1481 1482 1485 1487 1489 1491 1494 1496 1499 1501 1503 1505 1507 1509 1511 1513 1514 1516 1518 1519 1521 1523 1525 1527 1529 1530 1532 1534 1536 1537 1539 1541 1543 1544
1478 1478 1478 1476 1473 1474 1476 1475 1474 1473 1473 1473 1474 1475 1476 1478 1480 1482 1484 1486 1488 1490 1493 1495 1498 1500 1502 1504 1505 1507 1509 1511 1513 1515 1517 1518 1520 1522 1524 1526 1528 1529 1531 1533 1535 1537 1539 1540 1542
1478 1479 1478 1476 1473 1473 1474 1474 1472 1471 1471 1471 1472 1473 1474 1475 1477 1479 1481 1483 1485 1487 1490 1492 1494 1496 1499 1501 1503 1504 1506 1508 1510 1512 1514 1516 1517 1519 1521 1523 1525 1527 1528 1530 1532 1534 1535 1537 1539
1475 1478 1477 1476 1474 1472 1474 1475 1473 1470 1470 1471 1471 1472 1472 1473 1474 1476 1478 1480 1482 1485 1487 1489 1491 1493 1495 1498 1500 1501 1503 1505 1507 1508 1510 1512 1514 1516 1518 1520 1522 1524 1525 1527 1528 1530 1532 1534 1536
1474 1472 1473 1474 1477 1479 1476 1482 1476 1472 1472 1472 1471 1471 1471 1472 1473 1474 1476 1478 1480 1482 1484 1486 1488 1490 1492 1494 1496 1497 1499 1500 1502 1505 1507 1509 1511 1513 1515 1516 1518 1520 1522 1524 1525 1527 1529 1531 1532
1472 1470 1471 1472 1476 1479 1477 1481 1479 1473 1474 1473 1472 1471 1470 1471 1472 1473 1474 1476 1478 1479 1481 1483 1485 1487 1489 1491 1492 1494 1496 1497 1499 1502 1504 1505 1507 1509 1511 1513 1515 1517 1519 1520 1522 1524 1526 1527 1529
1469 1471 1471 1475 1477 1480 1476 1480 1481 1477 1474 1473 1472 1471 1470 1470 1471 1472 1473 1474 1475 1477 1478 1480 1482 1483 1485 1487 1489 1490 1492 1494 1496 1497 1499 1501 1503 1505 1507 1509 1511 1513 1515 1517 1519 1520 1522 1524 1526
1471 1477 1483 1484 1484 1477 1473 1478 1481 1476 1473 1472 1471 1471 1470 1470 1470 1470 1471 1472 1473 1474 1475 1477 1478 1480 1482 1483 1485 1486 1488 1490 1492 1493 1495 1497 1499 1501 1503 1505 1507 1509 1511 1513 1515 1517 1519 1520 1522
1473 1475 1482 1482 1480 1478 1474 1477 1479 1475 1473 1471 1471 1471 1470 1470 1470 1470 1470 1471 1471 1472 1473 1474 1475 1477 1478 1480 1481 1483 1485 1486 1488 1490 1491 1493 1495 1497 1499 1501 1503 1505 1507 1509 1511 1513 1515 1517 1518
1473 1474 1474 1480 1481 1482 1479 1478 1476 1474 1472 1471 1470 1470 1470 1469 1469 1470 1470 1470 1470 1470 1471 1472 1472 1473 1475 1476 1477 1479 1480 1482 1484 1486 1487 1489 1491 1493 1495 1497 1499 1501 1503 1505 1507 1509 1511 1513 1515
1473 1474 1477 1480 1481 1481 1479 1480 1482 1478 1476 1474 1473 1472 1471 1471 1470 1470 1469 1469 1469 1469 1469 1470 1470 1470 1471 1473 1474 1475 1476 1478 1480 1482 1483 1485 1487 1489 1490 1492 1494 1496 1498 1501 1503 1505 1507 1509 1511
1477 1477 1477 1479 1480 1483 1484 1486 1480 1479 1477 1476 1475 1474 1473 1472 1471 1470 1469 1468 1468 1467 1467 1467 1467 1468 1468 1469 1470 1471 1473 1474 1476 1477 1479 1481 1482 1484 1486 1488 1490 1492 1494 1496 1499 1501 1503 1504 1506
1479 1480 1480 1481 1484 1484 1487 1490 1480 1479 1477 1477 1477 1476 1475 1473 1472 1470 1469 1468 1467 1466 1465 1465 1465 1465 1465 1466 1467 1468 1469 1470 1472 1473 1475 1476 1478 1480 1482 1484 1486 1488 1490 1492 1494 1496 1498 1500 1502